Weather Roundup
Issued by NWS Springfield, MO

Home | Current Version | Previous Version | Graphics & Text | Print | Product List | Glossary On
Versions: 1 2 3 4 5 6 7 8 9 10 11 12 13 14 15 16 17 18 19 20 21 22 23 24 25 26 27 28 29 30 31 32 33 34 35 36 37 38 39 40 41 42 43 44 45 46 47 48 49 50
000
NZUS99 KSGF 301607
HRRSGF

HOURLY WEATHER
NATIONAL WEATHER SERVICE SPRINGFIELD MO
1100 AM CDT THU JUL 30 2015

......SGF CWA......

CITY           SKY/WX    TMP DP  RH WIND       PRES   REMARKS
SPRINGFIELD    MOSUNNY   81  59  47 NE8       30.22R
JOPLIN         MOSUNNY   83  62  49 E10       30.21R
WEST PLAINS    SUNNY     81  59  47 E7        30.23R
ROLLA          SUNNY     82  57  42 E5        30.21R
OSAGE BEACH    SUNNY     81  63  54 SE3       30.22R
BRANSON        MOSUNNY   79  61  53 E12       30.23S

......SURROUNDING SGF CWA......

CITY           SKY/WX    TMP DP  RH WIND       PRES   REMARKS
CHANUTE        CLOUDY    82  66  58 E8        30.22R
PARSONS        CLOUDY    82  66  58 VRB5      30.21S
COFFEYVILLE    PTSUNNY   84  67  56 E10       30.18S
EMPORIA        CLOUDY    72  68  87 W3        30.25S
GROVE OK       CLOUDY    82  68  61 E7        30.19R
ROGERS AR      MOSUNNY   82  65  56 E13       30.21S
SILOAM SPRINGS SUNNY     82  66  57 E8        30.17S
HARRISON AR    MOSUNNY   80  61  52 E9        30.23R
NEAR YELLVILLE SUNNY     81  61  50 E3        30.18S

......KANSAS AND MISSOURI......

CITY           SKY/WX    TMP DP  RH WIND       PRES   REMARKS
KANSAS CTY INT PTSUNNY   81  66  60 W6        30.23R
DOWNTOWN KC    PTSUNNY   83  66  56 N5        30.22R
COLUMBIA       SUNNY     85  55  35 CALM      30.21R
SEDALIA        MOSUNNY   85  55  35 SE6       30.22S
ST JOSEPH        N/A     80  70  71 VRB3      30.22S
ST LOUIS       MOSUNNY   86  59  39 N3        30.18R
SPIRIT OF STL  SUNNY     84  65  52 CALM      30.17R
KIRKSVILLE     SUNNY     83  61  47 NW9       30.21S
WICHITA        TSTM      71  68  90 SE8       30.25F
TOPEKA         PTSUNNY   79  67  66 CALM      30.23S
OLATHE         PTSUNNY   80  58  46 SW6       30.23R

......TENNESSEE......

CITY           SKY/WX    TMP DP  RH WIND       PRES   REMARKS
MEMPHIS        SUNNY     87  67  51 N13       30.11R HX  90
NASHVILLE      MOSUNNY   85  62  46 N13       30.11S

......ARKANSAS.......

CITY           SKY/WX    TMP DP  RH WIND       PRES   REMARKS
FAYETTEVILLE   SUNNY     83  73  72 E6        30.18S
FT SMITH       MOSUNNY   87  72  60 E8        30.13R HX  93
LITTLE ROCK    SUNNY     88  69  53 NE13G20   30.13R HX  92

......OKLAHOMA.......

CITY           SKY/WX    TMP DP  RH WIND       PRES   REMARKS
TULSA          CLOUDY    86  75  69 CALM      30.14R HX  95
PONCA CITY     CLOUDY    72  70  93 N15       30.20F
MCALESTER      SUNNY     91  74  57 CALM      30.13S HX 100
OKLAHOMA CITY  MOSUNNY   90  69  50 VRB5      30.15S HX  94

......IOWA............

CITY           SKY/WX    TMP DP  RH WIND       PRES   REMARKS
DES MOINES     MOSUNNY   83  60  45 W10       30.17R
QUAD CITIES    SUNNY     81  62  52 W7        30.12R

......ILLINOIS........

CITY           SKY/WX    TMP DP  RH WIND       PRES   REMARKS
QUINCY         SUNNY     82  60  47 W12       30.18S
CHICAGO        SUNNY     82  54  37 NW15      30.06S



USA.gov is the U.S. government's official web portal to all federal, state and local government web resources and services.